| time (UTC) | temp F | wind direction | speed MPH | gust MPH | rain 1hr in | rain 24hr in | rain mn in | humidity % | barometer mb |
| 20260902194612 | 66 | 178 | 1.0 | 1.0 | 0.00 | 0.82 | 0.82 | 99 | 1020.3 |
| 20260902194107 | 66 | 191 | 0.0 | 1.0 | 0.00 | 0.82 | 0.82 | 99 | 1020.5 |
| 20260902193603 | 65 | 193 | 0.0 | 0.0 | 0.00 | 0.82 | 0.82 | 99 | 1020.6 |
| 20260902193103 | 65 | 196 | 1.0 | 1.0 | 0.00 | 0.82 | 0.82 | 99 | 1020.2 |
| 20260902192601 | 65 | 200 | 0.0 | 0.0 | 0.00 | 0.82 | 0.82 | 99 | 1020.6 |
| 20260902192100 | 65 | 202 | 0.0 | 0.0 | 0.07 | 0.82 | 0.82 | 99 | 1020.8 |
| 20260902191556 | 65 | 204 | 0.0 | 0.0 | 0.00 | 0.81 | 0.81 | 99 | 1020.7 |
| 20260902191050 | 65 | 197 | 0.0 | 0.0 | 0.00 | 0.81 | 0.81 | 99 | 1021.1 |
| 20260902190546 | 65 | 189 | 0.0 | 0.0 | 0.35 | 0.81 | 0.81 | 99 | 1021.3 |
| 20260902190041 | 65 | 195 | 0.0 | 0.0 | 1.87 | 0.80 | 0.80 | 99 | 1021.0 |
| 20260902185537 | 65 | 183 | 0.0 | 0.0 | 1.84 | 0.70 | 0.70 | 99 | 1021.1 |
| 20260902185032 | 65 | 195 | 0.0 | 0.0 | 0.78 | 0.45 | 0.45 | 99 | 1021.2 |
| 20260902184527 | 65 | 196 | 0.0 | 1.0 | 0.71 | 0.38 | 0.38 | 99 | 1021.3 |
| 20260902184022 | 65 | 179 | 0.0 | 0.0 | 0.61 | 0.32 | 0.32 | 99 | 1021.4 |
| 20260902183519 | 66 | 187 | 0.0 | 0.0 | 0.47 | 0.25 | 0.25 | 99 | 1021.6 |
| 20260902183015 | 66 | 219 | 1.0 | 1.0 | 0.83 | 0.22 | 0.22 | 99 | 1022.1 |
| 20260902182511 | 66 | 202 | 0.0 | 1.0 | 0.66 | 0.15 | 0.15 | 99 | 1022.0 |
| 20260902182006 | 66 | 184 | 1.0 | 1.0 | 0.28 | 0.07 | 0.07 | 98 | 1022.0 |
| 20260902181502 | 67 | 150 | 0.0 | 0.0 | 0.05 | 0.03 | 0.03 | 95 | 1022.0 |
| 20260902180957 | 67 | 208 | 0.0 | 1.0 | 0.00 | 0.02 | 0.02 | 94 | 1021.4 |
| 20260902180457 | 67 | 203 | 0.0 | 0.0 | 0.00 | 0.02 | 0.02 | 93 | 1020.9 |
| 20260902175952 | 67 | 200 | 0.0 | 0.0 | 0.00 | 0.02 | 0.02 | 93 | 1020.8 |
| 20260902175447 | 67 | 199 | 0.0 | 0.0 | 0.00 | 0.02 | 0.02 | 93 | 1021.1 |
| 20260902174943 | 68 | 200 | 0.0 | 0.0 | 0.00 | 0.02 | 0.02 | 92 | 1020.9 |
| 20260902174440 | 68 | 198 | 0.0 | 0.0 | 0.00 | 0.02 | 0.02 | 92 | 1021.1 |
| 20260902173935 | 68 | 198 | 0.0 | 1.0 | 0.00 | 0.02 | 0.02 | 92 | 1020.9 |
| 20260902173434 | 68 | 185 | 0.0 | 1.0 | 0.00 | 0.02 | 0.02 | 92 | 1021.1 |
| 20260902172929 | 68 | 202 | 0.0 | 0.0 | 0.00 | 0.02 | 0.02 | 93 | 1021.2 |
| 20260902172429 | 68 | 191 | 1.0 | 1.0 | 0.00 | 0.02 | 0.02 | 93 | 1020.9 |
| 20260902171924 | 68 | 191 | 0.0 | 0.0 | 0.00 | 0.02 | 0.02 | 93 | 1021.3 |
| 20260902171419 | 68 | 202 | 0.0 | 0.0 | 0.00 | 0.02 | 0.02 | 94 | 1021.2 |
| 20260902170915 | 67 | 200 | 0.0 | 0.0 | 0.00 | 0.02 | 0.02 | 94 | 1021.2 |
| 20260902170410 | 67 | 187 | 0.0 | 0.0 | 0.00 | 0.02 | 0.02 | 94 | 1020.9 |
| 20260902165906 | 67 | 198 | 0.0 | 0.0 | 0.00 | 0.02 | 0.02 | 95 | 1021.2 |
| 20260902165405 | 67 | 203 | 0.0 | 0.0 | 0.00 | 0.02 | 0.02 | 95 | 1021.4 |
| 20260902164900 | 67 | 204 | 0.0 | 0.0 | 0.00 | 0.02 | 0.02 | 95 | 1021.5 |
| 20260902164355 | 67 | 203 | 0.0 | 0.0 | 0.00 | 0.02 | 0.02 | 95 | 1021.4 |
| 20260902163854 | 67 | 271 | 0.0 | 0.0 | 0.00 | 0.02 | 0.02 | 95 | 1021.6 |
| 20260902163349 | 67 | 204 | 0.0 | 0.0 | 0.00 | 0.02 | 0.02 | 95 | 1021.6 |
| 20260902162847 | 67 | 205 | 0.0 | 0.0 | 0.00 | 0.02 | 0.02 | 95 | 1021.7 |
| 20260902162343 | 67 | 210 | 0.0 | 0.0 | 0.00 | 0.02 | 0.02 | 95 | 1021.5 |
| 20260902161842 | 67 | 203 | 0.0 | 0.0 | 0.00 | 0.02 | 0.02 | 95 | 1021.6 |
| 20260902161338 | 67 | 204 | 0.0 | 0.0 | 0.00 | 0.02 | 0.02 | 96 | 1021.5 |
| 20260902160828 | 66 | 204 | 0.0 | 0.0 | 0.00 | 0.02 | 0.02 | 96 | 1021.3 |
| 20260902160324 | 66 | 198 | 0.0 | 0.0 | 0.00 | 0.02 | 0.02 | 96 | 1021.4 |
| 20260902155821 | 66 | 202 | 0.0 | 0.0 | 0.00 | 0.02 | 0.02 | 96 | 1021.3 |
| 20260902155320 | 66 | 198 | 0.0 | 0.0 | 0.00 | 0.02 | 0.02 | 96 | 1021.5 |
| 20260902154816 | 66 | 202 | 0.0 | 0.0 | 0.00 | 0.02 | 0.02 | 96 | 1021.5 |
| 20260902154311 | 66 | 201 | 0.0 | 0.0 | 0.00 | 0.02 | 0.02 | 96 | 1021.4 |
| 20260902153810 | 66 | 204 | 0.0 | 0.0 | 0.00 | 0.02 | 0.02 | 95 | 1021.4 |
| 20260902153304 | 66 | 207 | 0.0 | 0.0 | 0.00 | 0.02 | 0.02 | 95 | 1021.6 |
| 20260902152800 | 66 | 205 | 0.0 | 0.0 | 0.00 | 0.02 | 0.02 | 96 | 1021.7 |
| 20260902152256 | 66 | 203 | 0.0 | 0.0 | 0.00 | 0.02 | 0.02 | 95 | 1021.6 |
| 20260902151756 | 66 | 203 | 0.0 | 0.0 | 0.00 | 0.02 | 0.02 | 95 | 1021.8 |
| 20260902151251 | 66 | 200 | 0.0 | 0.0 | 0.00 | 0.02 | 0.02 | 95 | 1021.6 |
| 20260902150746 | 66 | 202 | 0.0 | 0.0 | 0.00 | 0.02 | 0.02 | 96 | 1021.7 |
| 20260902150243 | 66 | 197 | 0.0 | 0.0 | 0.00 | 0.02 | 0.02 | 96 | 1021.8 |
| 20260902145741 | 66 | 177 | 0.0 | 0.0 | 0.00 | 0.02 | 0.02 | 96 | 1021.9 |
| 20260902145237 | 66 | 200 | 0.0 | 0.0 | 0.00 | 0.02 | 0.02 | 96 | 1022.0 |
| 20260902144732 | 65 | 203 | 0.0 | 0.0 | 0.00 | 0.02 | 0.02 | 96 | 1021.6 |
| 20260902144228 | 65 | 196 | 0.0 | 0.0 | 0.00 | 0.02 | 0.02 | 97 | 1021.8 |
| 20260902143723 | 65 | 200 | 0.0 | 0.0 | 0.00 | 0.02 | 0.02 | 96 | 1021.7 |
| 20260902143218 | 65 | 205 | 0.0 | 0.0 | 0.00 | 0.02 | 0.02 | 96 | 1021.4 |
| 20260902142714 | 65 | 202 | 0.0 | 0.0 | 0.00 | 0.02 | 0.02 | 97 | 1021.8 |
| 20260902142209 | 65 | 204 | 0.0 | 0.0 | 0.00 | 0.02 | 0.02 | 97 | 1021.7 |
| 20260902141704 | 64 | 206 | 0.0 | 0.0 | 0.00 | 0.02 | 0.02 | 97 | 1021.5 |
| 20260902141159 | 64 | 195 | 0.0 | 0.0 | 0.00 | 0.02 | 0.02 | 98 | 1021.4 |
| 20260902140654 | 64 | 202 | 0.0 | 0.0 | 0.00 | 0.02 | 0.02 | 98 | 1021.7 |
| 20260902140149 | 64 | 198 | 0.0 | 0.0 | 0.00 | 0.02 | 0.02 | 98 | 1021.9 |
| 20260902135648 | 64 | 233 | 0.0 | 0.0 | 0.00 | 0.02 | 0.02 | 99 | 1022.0 |
| 20260902135144 | 63 | 201 | 0.0 | 0.0 | 0.00 | 0.02 | 0.02 | 99 | 1021.9 |
| 20260902134639 | 64 | 205 | 0.0 | 0.0 | 0.00 | 0.02 | 0.02 | 99 | 1021.8 |
| 20260902134138 | 63 | 199 | 0.0 | 1.0 | 0.00 | 0.02 | 0.02 | 99 | 1021.4 |
| 20260902133633 | 63 | 203 | 0.0 | 0.0 | 0.00 | 0.02 | 0.02 | 99 | 1021.7 |
| 20260902133128 | 63 | 204 | 0.0 | 0.0 | 0.00 | 0.02 | 0.02 | 99 | 1021.3 |
| 20260902132623 | 63 | 243 | 1.0 | 2.0 | 0.00 | 0.02 | 0.02 | 99 | 1021.1 |
| 20260902132118 | 62 | 183 | 0.0 | 0.0 | 0.00 | 0.02 | 0.02 | 99 | 1021.0 |
| 20260902131614 | 62 | 194 | 0.0 | 0.0 | 0.00 | 0.02 | 0.02 | 99 | 1021.0 |
| 20260902131110 | 62 | 180 | 0.0 | 0.0 | 0.00 | 0.02 | 0.02 | 99 | 1021.3 |
| 20260902130606 | 62 | 212 | 0.0 | 0.0 | 0.00 | 0.02 | 0.02 | 99 | 1021.2 |
| 20260902130106 | 62 | 174 | 0.0 | 0.0 | 0.00 | 0.02 | 0.02 | 99 | 1021.4 |
| 20260902125602 | 62 | 195 | 0.0 | 0.0 | 0.00 | 0.02 | 0.02 | 99 | 1021.3 |
| 20260902125057 | 62 | 201 | 0.0 | 0.0 | 0.00 | 0.02 | 0.02 | 99 | 1021.2 |
| 20260902124555 | 62 | 196 | 0.0 | 0.0 | 0.00 | 0.02 | 0.02 | 99 | 1021.4 |
| 20260902124054 | 62 | 195 | 0.0 | 0.0 | 0.00 | 0.02 | 0.02 | 99 | 1021.2 |
| 20260902123549 | 62 | 211 | 0.0 | 0.0 | 0.00 | 0.02 | 0.02 | 99 | 1021.3 |
| 20260902123044 | 62 | 196 | 0.0 | 0.0 | 0.00 | 0.02 | 0.02 | 99 | 1021.3 |
| 20260902122543 | 62 | 202 | 0.0 | 0.0 | 0.00 | 0.02 | 0.02 | 99 | 1021.0 |
| 20260902122034 | 62 | 196 | 0.0 | 0.0 | 0.00 | 0.02 | 0.02 | 99 | 1021.3 |
| 20260902121534 | 61 | 203 | 0.0 | 0.0 | 0.00 | 0.02 | 0.02 | 99 | 1021.2 |
| 20260902121029 | 61 | 200 | 0.0 | 0.0 | 0.00 | 0.02 | 0.02 | 99 | 1021.5 |
| 20260902120525 | 61 | 184 | 0.0 | 1.0 | 0.00 | 0.02 | 0.02 | 99 | 1021.0 |
| 20260902120021 | 61 | 198 | 0.0 | 0.0 | 0.00 | 0.02 | 0.02 | 99 | 1021.0 |
| 20260902115516 | 61 | 197 | 0.0 | 0.0 | 0.00 | 0.02 | 0.02 | 99 | 1021.0 |
| 20260902115013 | 61 | 193 | 0.0 | 0.0 | 0.00 | 0.02 | 0.02 | 99 | 1021.0 |
| 20260902114508 | 61 | 194 | 1.0 | 1.0 | 0.00 | 0.02 | 0.02 | 99 | 1021.0 |
| 20260902114008 | 61 | 183 | 0.0 | 0.0 | 0.00 | 0.02 | 0.02 | 99 | 1021.0 |
| 20260902113503 | 61 | 179 | 0.0 | 0.0 | 0.00 | 0.02 | 0.02 | 99 | 1020.9 |
| 20260902113003 | 62 | 188 | 0.0 | 0.0 | 0.00 | 0.02 | 0.02 | 99 | 1021.1 |
| 20260902112459 | 62 | 187 | 0.0 | 0.0 | 0.00 | 0.02 | 0.02 | 99 | 1021.3 |
| 20260902111955 | 61 | 165 | 0.0 | 0.0 | 0.00 | 0.02 | 0.02 | 99 | 1021.3 |
| 20260902111451 | 62 | 189 | 0.0 | 0.0 | 0.00 | 0.02 | 0.02 | 99 | 1021.4 |
| 20260902110947 | 62 | 199 | 0.0 | 0.0 | 0.00 | 0.02 | 0.02 | 99 | 1021.1 |
| 20260902110443 | 62 | 200 | 0.0 | 0.0 | 0.00 | 0.02 | 0.02 | 99 | 1020.9 |
| 20260902105937 | 62 | 184 | 1.0 | 2.0 | 0.00 | 0.02 | 0.02 | 99 | 1021.1 |
| 20260902105433 | 62 | 190 | 0.0 | 0.0 | 0.00 | 0.02 | 0.02 | 99 | 1021.0 |
| 20260902104927 | 62 | 199 | 0.0 | 0.0 | 0.00 | 0.02 | 0.02 | 99 | 1021.0 |
| 20260902104423 | 62 | 213 | 0.0 | 0.0 | 0.00 | 0.02 | 0.02 | 99 | 1021.1 |
| 20260902103923 | 62 | 185 | 0.0 | 0.0 | 0.00 | 0.02 | 0.02 | 99 | 1021.1 |
| 20260902103418 | 62 | 212 | 0.0 | 0.0 | 0.00 | 0.02 | 0.02 | 99 | 1020.9 |
| 20260902102913 | 62 | 202 | 0.0 | 0.0 | 0.00 | 0.02 | 0.02 | 99 | 1021.0 |
| 20260902102411 | 62 | 183 | 1.0 | 1.0 | 0.00 | 0.02 | 0.02 | 99 | 1020.7 |
| 20260902101907 | 62 | 184 | 0.0 | 1.0 | 0.00 | 0.02 | 0.02 | 99 | 1020.6 |
| 20260902101401 | 62 | 203 | 0.0 | 0.0 | 0.00 | 0.02 | 0.02 | 99 | 1020.8 |
| 20260902100901 | 62 | 202 | 0.0 | 0.0 | 0.00 | 0.02 | 0.02 | 99 | 1020.6 |
| 20260902100400 | 62 | 203 | 0.0 | 0.0 | 0.00 | 0.02 | 0.02 | 99 | 1020.6 |
| 20260902095855 | 62 | 187 | 0.0 | 0.0 | 0.00 | 0.02 | 0.02 | 99 | 1020.5 |
| 20260902095355 | 63 | 199 | 0.0 | 0.0 | 0.00 | 0.02 | 0.02 | 99 | 1020.5 |
| 20260902094854 | 63 | 198 | 0.0 | 0.0 | 0.00 | 0.02 | 0.02 | 99 | 1020.3 |
| 20260902094351 | 63 | 201 | 0.0 | 0.0 | 0.00 | 0.02 | 0.02 | 99 | 1020.6 |
| 20260902093850 | 63 | 201 | 0.0 | 0.0 | 0.00 | 0.02 | 0.02 | 99 | 1020.2 |
| 20260902093346 | 63 | 195 | 0.0 | 0.0 | 0.00 | 0.02 | 0.02 | 99 | 1020.5 |
| 20260902092844 | 63 | 198 | 0.0 | 0.0 | 0.00 | 0.02 | 0.02 | 99 | 1020.5 |
| 20260902092340 | 63 | 202 | 0.0 | 0.0 | 0.00 | 0.02 | 0.02 | 99 | 1020.6 |
| 20260902091835 | 63 | 200 | 0.0 | 0.0 | 0.07 | 0.02 | 0.02 | 99 | 1020.3 |
| 20260902091330 | 63 | 204 | 0.0 | 0.0 | 0.07 | 0.02 | 0.02 | 99 | 1020.3 |
| 20260902090827 | 63 | 203 | 0.0 | 0.0 | 0.00 | 0.01 | 0.01 | 99 | 1020.5 |
| 20260902090326 | 63 | 185 | 0.0 | 0.0 | 0.00 | 0.01 | 0.01 | 99 | 1020.3 |
| 20260902085825 | 63 | 206 | 0.0 | 0.0 | 0.00 | 0.01 | 0.01 | 99 | 1020.5 |
| 20260902085321 | 63 | 207 | 0.0 | 0.0 | 0.00 | 0.01 | 0.01 | 99 | 1020.3 |
| 20260902084816 | 63 | 218 | 0.0 | 0.0 | 0.00 | 0.01 | 0.01 | 99 | 1020.3 |
| 20260902084313 | 63 | 210 | 0.0 | 0.0 | 0.00 | 0.01 | 0.01 | 99 | 1020.0 |
| 20260902083808 | 63 | 201 | 0.0 | 0.0 | 0.00 | 0.01 | 0.01 | 99 | 1019.9 |
| 20260902083308 | 63 | 203 | 0.0 | 0.0 | 0.00 | 0.01 | 0.01 | 99 | 1019.8 |
| 20260902082802 | 63 | 203 | 0.0 | 0.0 | 0.00 | 0.01 | 0.01 | 99 | 1019.9 |
| 20260902082259 | 63 | 190 | 0.0 | 0.0 | 0.00 | 0.01 | 0.01 | 99 | 1019.8 |
| 20260902081755 | 63 | 198 | 0.0 | 1.0 | 0.00 | 0.01 | 0.01 | 99 | 1019.6 |
| 20260902081250 | 63 | 177 | 0.0 | 0.0 | 0.00 | 0.01 | 0.01 | 99 | 1019.7 |
| 20260902080745 | 63 | 188 | 0.0 | 0.0 | 0.00 | 0.01 | 0.01 | 99 | 1019.5 |
| 20260902080243 | 63 | 188 | 0.0 | 0.0 | 0.00 | 0.01 | 0.01 | 99 | 1019.6 |
| 20260902075741 | 63 | 188 | 0.0 | 0.0 | 0.00 | 0.01 | 0.01 | 99 | 1019.4 |
| 20260902075238 | 62 | 182 | 0.0 | 0.0 | 0.00 | 0.01 | 0.01 | 99 | 1019.6 |
| 20260902074732 | 63 | 174 | 0.0 | 0.0 | 0.00 | 0.01 | 0.01 | 99 | 1019.5 |
| 20260902074227 | 63 | 164 | 0.0 | 0.0 | 0.00 | 0.01 | 0.01 | 99 | 1019.6 |
| 20260902073717 | 63 | 196 | 0.0 | 0.0 | 0.00 | 0.01 | 0.01 | 99 | 1019.6 |
| 20260902073212 | 63 | 204 | 0.0 | 0.0 | 0.00 | 0.01 | 0.01 | 99 | 1019.8 |
| 20260902072708 | 63 | 194 | 0.0 | 0.0 | 0.00 | 0.01 | 0.01 | 99 | 1019.5 |
| 20260902072204 | 63 | 198 | 0.0 | 0.0 | 0.00 | 0.01 | 0.01 | 99 | 1019.4 |
| 20260902071700 | 63 | 198 | 0.0 | 0.0 | 0.00 | 0.01 | 0.01 | 99 | 1019.3 |
| 20260902071155 | 63 | 203 | 0.0 | 0.0 | 0.00 | 0.01 | 0.01 | 99 | 1019.5 |
| 20260902070652 | 63 | 178 | 0.0 | 0.0 | 0.00 | 0.01 | 0.01 | 99 | 1019.4 |
| 20260902070151 | 63 | 207 | 0.0 | 0.0 | 0.00 | 0.01 | 0.01 | 99 | 1019.3 |
| 20260902065649 | 63 | 197 | 0.0 | 0.0 | 0.00 | 0.01 | 0.01 | 99 | 1019.4 |
| 20260902065146 | 63 | 183 | 0.0 | 0.0 | 0.00 | 0.01 | 0.01 | 99 | 1019.3 |
| 20260902064641 | 63 | 198 | 0.0 | 0.0 | 0.00 | 0.01 | 0.01 | 99 | 1019.6 |
| 20260902064136 | 63 | 240 | 1.0 | 1.0 | 0.00 | 0.01 | 0.01 | 99 | 1019.4 |
| 20260902063632 | 63 | 201 | 0.0 | 0.0 | 0.00 | 0.01 | 0.01 | 99 | 1019.7 |
| 20260902063127 | 63 | 201 | 0.0 | 0.0 | 0.00 | 0.01 | 0.01 | 99 | 1019.6 |
| 20260902062625 | 63 | 201 | 0.0 | 0.0 | 0.00 | 0.01 | 0.01 | 99 | 1019.3 |
| 20260902062121 | 63 | 200 | 0.0 | 0.0 | 0.00 | 0.01 | 0.01 | 99 | 1019.4 |
| 20260902061620 | 63 | 198 | 0.0 | 0.0 | 0.00 | 0.01 | 0.01 | 99 | 1019.4 |
| 20260902061116 | 63 | 191 | 0.0 | 0.0 | 0.00 | 0.01 | 0.01 | 99 | 1019.7 |
| 20260902060612 | 63 | 201 | 0.0 | 0.0 | 0.00 | 0.01 | 0.01 | 99 | 1019.8 |
| 20260902060109 | 63 | 200 | 0.0 | 0.0 | 0.00 | 0.01 | 0.01 | 99 | 1019.7 |
| 20260902055604 | 63 | 209 | 0.0 | 0.0 | 0.00 | 0.01 | 0.01 | 99 | 1019.8 |
| 20260902055059 | 63 | 224 | 0.0 | 0.0 | 0.00 | 0.01 | 0.01 | 99 | 1019.6 |
| 20260902054554 | 63 | 199 | 0.0 | 0.0 | 0.00 | 0.01 | 0.01 | 99 | 1019.7 |
| 20260902054050 | 63 | 195 | 0.0 | 0.0 | 0.00 | 0.01 | 0.01 | 99 | 1019.5 |
| 20260902053544 | 63 | 192 | 0.0 | 0.0 | 0.00 | 0.01 | 0.01 | 99 | 1019.6 |
| 20260902053039 | 63 | 188 | 0.0 | 0.0 | 0.00 | 0.01 | 0.01 | 99 | 1019.8 |
| 20260902052533 | 63 | 201 | 0.0 | 0.0 | 0.00 | 0.01 | 0.01 | 99 | 1019.8 |
| 20260902052030 | 63 | 204 | 0.0 | 0.0 | 0.00 | 0.01 | 0.01 | 99 | 1019.6 |
| 20260902051529 | 63 | 195 | 0.0 | 0.0 | 0.00 | 0.01 | 0.01 | 99 | 1019.6 |
| 20260902051028 | 63 | 194 | 0.0 | 0.0 | 0.00 | 0.01 | 0.01 | 99 | 1019.7 |
| 20260902050522 | 63 | 203 | 0.0 | 0.0 | 0.05 | 0.01 | 0.01 | 99 | 1019.8 |
| 20260902050018 | 63 | 200 | 0.0 | 0.0 | 0.05 | 0.01 | 0.01 | 99 | 1019.7 |
| 20260902045513 | 63 | 202 | 0.0 | 0.0 | 0.00 | 0.00 | 0.00 | 99 | 1019.8 |
| 20260902045010 | 63 | 196 | 0.0 | 0.0 | 0.00 | 0.00 | 0.00 | 99 | 1019.8 |
| 20260902044509 | 63 | 203 | 0.0 | 0.0 | 0.00 | 0.00 | 0.00 | 99 | 1019.7 |
| 20260902044005 | 63 | 194 | 0.0 | 0.0 | 0.00 | 0.00 | 0.00 | 99 | 1019.7 |
| 20260902043500 | 63 | 189 | 0.0 | 0.0 | 0.00 | 0.00 | 0.00 | 99 | 1020.0 |
| 20260902042955 | 63 | 205 | 0.0 | 0.0 | 0.00 | 0.00 | 0.00 | 99 | 1019.6 |
| 20260902042454 | 63 | 200 | 0.0 | 0.0 | 0.00 | 0.00 | 0.00 | 99 | 1019.6 |
| 20260902041944 | 63 | 203 | 0.0 | 1.0 | 0.00 | 0.00 | 0.00 | 99 | 1019.5 |
| 20260902041439 | 63 | 204 | 0.0 | 0.0 | 0.00 | 0.00 | 0.00 | 99 | 1019.4 |
| 20260902040938 | 63 | 198 | 0.0 | 0.0 | 0.00 | 0.00 | 0.00 | 99 | 1019.4 |
| 20260902040433 | 63 | 193 | 0.0 | 0.0 | 0.00 | 0.00 | 0.00 | 99 | 1019.5 |
| 20260902035932 | 63 | 185 | 0.0 | 0.0 | 0.00 | 1.74 | 1.74 | 99 | 1019.2 |
| 20260902035427 | 63 | 185 | 0.0 | 0.0 | 0.00 | 1.74 | 1.74 | 99 | 1019.0 |
| 20260902034927 | 63 | 180 | 0.0 | 0.0 | 0.00 | 1.74 | 1.74 | 99 | 1019.0 |
| 20260902034421 | 63 | 210 | 0.0 | 0.0 | 0.00 | 1.74 | 1.74 | 99 | 1019.1 |
| 20260902033921 | 63 | 169 | 0.0 | 0.0 | 0.00 | 1.74 | 1.74 | 99 | 1019.0 |
| 20260902033414 | 63 | 189 | 0.0 | 0.0 | 0.00 | 1.74 | 1.74 | 99 | 1019.0 |
| 20260902032914 | 63 | 168 | 0.0 | 0.0 | 0.00 | 1.74 | 1.74 | 99 | 1018.8 |
| 20260902032408 | 63 | 193 | 0.0 | 0.0 | 0.00 | 1.74 | 1.74 | 99 | 1018.8 |
| 20260902031903 | 63 | 61 | 1.0 | 1.0 | 0.00 | 1.74 | 1.74 | 99 | 1018.7 |
| 20260902031358 | 63 | 206 | 0.0 | 0.0 | 0.00 | 1.74 | 1.74 | 99 | 1018.7 |
| 20260902030855 | 63 | 196 | 0.0 | 0.0 | 0.00 | 1.74 | 1.74 | 99 | 1018.7 |
| 20260902030349 | 63 | 194 | 0.0 | 0.0 | 0.00 | 1.74 | 1.74 | 99 | 1018.4 |
| 20260902025848 | 64 | 186 | 0.0 | 0.0 | 0.00 | 1.74 | 1.74 | 99 | 1018.4 |
| 20260902025344 | 63 | 184 | 1.0 | 1.0 | 0.00 | 1.74 | 1.74 | 99 | 1018.6 |
| 20260902024838 | 63 | 194 | 0.0 | 0.0 | 0.00 | 1.74 | 1.74 | 99 | 1018.4 |
| 20260902024333 | 64 | 191 | 0.0 | 0.0 | 0.00 | 1.74 | 1.74 | 99 | 1018.2 |
| 20260902023828 | 64 | 190 | 0.0 | 0.0 | 0.00 | 1.74 | 1.74 | 99 | 1018.2 |
| 20260902023324 | 64 | 162 | 2.0 | 2.0 | 0.00 | 1.74 | 1.74 | 99 | 1017.8 |
| 20260902022823 | 64 | 187 | 0.0 | 0.0 | 0.00 | 1.74 | 1.74 | 99 | 1018.0 |
| 20260902022319 | 64 | 147 | 0.0 | 0.0 | 0.00 | 1.74 | 1.74 | 99 | 1018.1 |
| 20260902021815 | 64 | 139 | 0.0 | 1.0 | 0.00 | 1.74 | 1.74 | 99 | 1018.1 |
| 20260902021314 | 64 | 148 | 0.0 | 0.0 | 0.00 | 1.74 | 1.74 | 99 | 1018.2 |
| 20260902020805 | 64 | 197 | 0.0 | 0.0 | 0.00 | 1.74 | 1.74 | 99 | 1018.2 |
| 20260902020301 | 64 | 192 | 1.0 | 2.0 | 0.00 | 1.74 | 1.74 | 99 | 1018.2 |
| 20260902015756 | 64 | 187 | 0.0 | 0.0 | 0.00 | 1.74 | 1.74 | 99 | 1018.3 |
| 20260902015252 | 64 | 199 | 0.0 | 0.0 | 0.00 | 1.74 | 1.74 | 99 | 1018.2 |
| 20260902014748 | 64 | 243 | 0.0 | 1.0 | 0.00 | 1.74 | 1.74 | 99 | 1018.1 |
| 20260902014244 | 65 | 179 | 1.0 | 2.0 | 0.00 | 1.74 | 1.74 | 99 | 1017.7 |
| 20260902013743 | 64 | 122 | 0.0 | 0.0 | 0.00 | 1.74 | 1.74 | 99 | 1017.7 |
| 20260902013238 | 65 | 63 | 1.0 | 1.0 | 0.00 | 1.74 | 1.74 | 99 | 1017.5 |
| 20260902012733 | 65 | 143 | 1.0 | 2.0 | 0.00 | 1.74 | 1.74 | 99 | 1017.3 |
| 20260902012230 | 65 | 96 | 0.0 | 1.0 | 0.00 | 1.74 | 1.74 | 99 | 1017.3 |
| 20260902011725 | 65 | 188 | 0.0 | 0.0 | 0.00 | 1.74 | 1.74 | 99 | 1017.2 |
| 20260902011224 | 65 | 147 | 3.0 | 3.0 | 0.00 | 1.74 | 1.74 | 99 | 1017.0 |
| 20260902010723 | 66 | 199 | 0.0 | 0.0 | 0.00 | 1.74 | 1.74 | 99 | 1017.2 |
| 20260902010219 | 66 | 189 | 0.0 | 1.0 | 0.00 | 1.74 | 1.74 | 99 | 1017.2 |
| 20260902005718 | 66 | 173 | 0.0 | 0.0 | 0.00 | 1.74 | 1.74 | 99 | 1017.0 |
| 20260902005214 | 66 | 173 | 1.0 | 1.0 | 0.00 | 1.74 | 1.74 | 99 | 1016.8 |
| 20260902004714 | 66 | 189 | 0.0 | 0.0 | 0.00 | 1.74 | 1.74 | 99 | 1016.8 |
| 20260902004209 | 66 | 188 | 0.0 | 0.0 | 0.00 | 1.74 | 1.74 | 99 | 1017.0 |
| 20260902003704 | 66 | 163 | 0.0 | 0.0 | 0.00 | 1.74 | 1.74 | 99 | 1016.9 |
| 20260902003159 | 67 | 161 | 0.0 | 1.0 | 0.00 | 1.74 | 1.74 | 99 | 1016.8 |
| 20260902002654 | 67 | 134 | 0.0 | 0.0 | 0.07 | 1.74 | 1.74 | 99 | 1017.0 |
| 20260902002155 | 67 | 180 | 0.0 | 1.0 | 0.00 | 1.73 | 1.73 | 99 | 1016.7 |
| 20260902001650 | 68 | 172 | 0.0 | 0.0 | 0.19 | 1.73 | 1.73 | 99 | 1016.6 |
| 20260902001149 | 69 | 102 | 0.0 | 0.0 | 0.66 | 1.72 | 1.72 | 99 | 1016.4 |
| 20260902000645 | 69 | 187 | 0.0 | 1.0 | 0.40 | 1.68 | 1.68 | 98 | 1016.0 |
| 20260902000140 | 69 | 158 | 1.0 | 2.0 | 0.00 | 1.61 | 1.61 | 98 | 1016.0 |
| 20260901235640 | 70 | 176 | 3.0 | 3.0 | 0.00 | 1.61 | 1.61 | 98 | 1016.0 |
| 20260901235135 | 70 | 169 | 0.0 | 1.0 | 0.00 | 1.61 | 1.61 | 98 | 1016.2 |
| 20260901234634 | 71 | 140 | 0.0 | 0.0 | 0.00 | 1.61 | 1.61 | 99 | 1015.9 |
| 20260901234130 | 72 | 169 | 0.0 | 0.0 | 0.00 | 1.61 | 1.61 | 99 | 1016.1 |
| 20260901233624 | 72 | 182 | 0.0 | 0.0 | 0.00 | 1.61 | 1.61 | 99 | 1016.2 |
| 20260901233121 | 73 | 175 | 0.0 | 0.0 | 0.00 | 1.61 | 1.61 | 98 | 1016.1 |
| 20260901232620 | 73 | 190 | 0.0 | 0.0 | 0.00 | 1.61 | 1.61 | 98 | 1015.8 |
| 20260901232115 | 74 | 184 | 0.0 | 0.0 | 0.00 | 1.61 | 1.61 | 98 | 1015.7 |
| 20260901231612 | 74 | 165 | 0.0 | 0.0 | 0.00 | 1.61 | 1.61 | 98 | 1015.7 |
| 20260901231109 | 75 | 188 | 0.0 | 0.0 | 0.00 | 1.61 | 1.61 | 98 | 1015.2 |
| 20260901230604 | 75 | 169 | 0.0 | 0.0 | 0.00 | 1.61 | 1.61 | 98 | 1015.3 |
| 20260901230103 | 75 | 184 | 0.0 | 0.0 | 0.00 | 1.61 | 1.61 | 98 | 1015.4 |
| 20260901225559 | 75 | 197 | 0.0 | 0.0 | 0.00 | 1.61 | 1.61 | 98 | 1015.5 |
| 20260901225058 | 75 | 189 | 0.0 | 0.0 | 0.00 | 1.61 | 1.61 | 97 | 1015.6 |
| 20260901224554 | 76 | 190 | 0.0 | 0.0 | 0.00 | 1.61 | 1.61 | 97 | 1015.5 |
| 20260901224050 | 76 | 194 | 0.0 | 0.0 | 0.00 | 1.61 | 1.61 | 97 | 1015.0 |
| 20260901223546 | 76 | 186 | 0.0 | 0.0 | 0.00 | 1.61 | 1.61 | 97 | 1014.8 |
| 20260901223041 | 76 | 197 | 0.0 | 0.0 | 0.00 | 1.61 | 1.61 | 96 | 1015.0 |
| 20260901222537 | 76 | 184 | 0.0 | 0.0 | 0.00 | 1.61 | 1.61 | 96 | 1014.8 |
| 20260901222032 | 76 | 192 | 0.0 | 0.0 | 0.00 | 1.61 | 1.61 | 95 | 1014.8 |
| 20260901221529 | 77 | 186 | 0.0 | 0.0 | 0.00 | 1.61 | 1.61 | 95 | 1015.0 |
| 20260901221023 | 77 | 197 | 0.0 | 0.0 | 0.00 | 1.61 | 1.61 | 94 | 1014.8 |
| 20260901220518 | 77 | 200 | 0.0 | 0.0 | 0.00 | 1.61 | 1.61 | 94 | 1015.0 |
| 20260901220016 | 77 | 192 | 0.0 | 0.0 | 0.00 | 1.61 | 1.61 | 93 | 1015.1 |
| 20260901215515 | 77 | 199 | 0.0 | 0.0 | 0.00 | 1.61 | 1.61 | 94 | 1015.1 |
| 20260901215014 | 77 | 200 | 0.0 | 0.0 | 0.00 | 1.61 | 1.61 | 94 | 1015.1 |
| 20260901214514 | 77 | 199 | 0.0 | 0.0 | 0.00 | 1.61 | 1.61 | 94 | 1014.9 |
| 20260901214008 | 77 | 200 | 0.0 | 0.0 | 0.00 | 1.61 | 1.61 | 94 | 1015.0 |
| 20260901213502 | 77 | 200 | 0.0 | 0.0 | 0.00 | 1.61 | 1.61 | 94 | 1015.0 |
| 20260901213002 | 77 | 200 | 0.0 | 0.0 | 0.00 | 1.61 | 1.61 | 94 | 1015.0 |
| 20260901212457 | 76 | 200 | 0.0 | 0.0 | 0.00 | 1.61 | 1.61 | 94 | 1015.1 |
| 20260901211953 | 77 | 200 | 0.0 | 0.0 | 0.00 | 1.61 | 1.61 | 94 | 1015.1 |
| 20260901211449 | 77 | 199 | 0.0 | 0.0 | 0.00 | 1.61 | 1.61 | 95 | 1015.2 |
| 20260901210945 | 77 | 207 | 0.0 | 0.0 | 0.00 | 1.61 | 1.61 | 94 | 1015.0 |
| 20260901210440 | 77 | 198 | 0.0 | 0.0 | 0.00 | 1.61 | 1.61 | 94 | 1015.0 |
| 20260901205937 | 77 | 200 | 0.0 | 0.0 | 0.00 | 1.61 | 1.61 | 94 | 1015.0 |
| 20260901205436 | 77 | 200 | 0.0 | 0.0 | 0.00 | 1.61 | 1.61 | 93 | 1015.0 |
| 20260901204931 | 77 | 199 | 0.0 | 0.0 | 0.00 | 1.61 | 1.61 | 93 | 1015.1 |
| 20260901204428 | 77 | 200 | 0.0 | 0.0 | 0.00 | 1.61 | 1.61 | 92 | 1015.0 |
| 20260901203922 | 77 | 200 | 0.0 | 0.0 | 0.00 | 1.61 | 1.61 | 92 | 1015.2 |
| 20260901203417 | 77 | 202 | 0.0 | 0.0 | 0.00 | 1.61 | 1.61 | 93 | 1015.0 |
| 20260901202912 | 77 | 201 | 0.0 | 0.0 | 0.00 | 1.61 | 1.61 | 92 | 1015.1 |
| 20260901202406 | 77 | 203 | 0.0 | 0.0 | 0.00 | 1.61 | 1.61 | 92 | 1015.0 |
| 20260901201903 | 77 | 202 | 0.0 | 0.0 | 0.00 | 1.61 | 1.61 | 93 | 1015.1 |
| 20260901201402 | 77 | 204 | 0.0 | 0.0 | 0.00 | 1.61 | 1.61 | 93 | 1015.1 |
| 20260901200856 | 77 | 202 | 0.0 | 0.0 | 0.00 | 1.61 | 1.61 | 93 | 1014.9 |
| 20260901200352 | 77 | 200 | 0.0 | 0.0 | 0.00 | 1.61 | 1.61 | 93 | 1014.8 |
| 20260901195850 | 77 | 200 | 0.0 | 0.0 | 0.00 | 1.61 | 1.61 | 93 | 1015.1 |
| 20260901195349 | 77 | 203 | 0.0 | 0.0 | 0.00 | 1.61 | 1.61 | 93 | 1015.1 |
| 20260901194845 | 77 | 195 | 0.0 | 0.0 | 0.00 | 1.61 | 1.61 | 91 | 1015.0 |